Location: Nairn
(57.5833°N, 3.8667°W)
Time: 22:37:43
(UTC+00:00)

Tiros 1 - Pass Details

Date: 30 November 2020
Orbit: 630 x 663 km, 48.4° (Epoch: 22 January)

Event Time Altitude Azimuth Distance (km) Brightness Sun altitude
Rises 20:40:13 0° 266° (W) 2,986 11.3 -38.8°
Enters shadow 20:42:50 - 248° (WSW) 2,293 10.4 -39.1°
Reaches altitude 10° 20:44:09 10° 234° (SW) 2,062 - -39.3°
Maximum altitude 20:45:44 12° 215° (SW) 1,954 - -39.5°
Drops below altitude 10° 20:47:19 10° 195° (SSW) 2,052 - -39.7°
Sets 20:51:12 0° 163° (SSE) 2,949 - -40.1°
